Weather History for Greeley, CO

Change the Weather History Date:

Saturday, October 19, 2013

  Actual Average Record
Temperature  
Mean Temperature 44 °F -  
Max Temperature 64 °F 61 °F 86 °F (2003)
Min Temperature 24 °F 30 °F 18 °F (1976)
Degree Days  
Heating Degree Days 21    
Moisture  
Dew Point 28 °F    
Average Humidity 60    
Maximum Humidity 86    
Minimum Humidity 24    
Precipitation  
Precipitation 0.00 in - - ()
Sea Level Pressure  
Sea Level Pressure 30.00 in    
Wind  
Wind Speed 3 mph (ESE)    
Max Wind Speed 10 mph    
Max Gust Speed -    
Visibility 10 miles    
Events      
Averages and records for this station are not official NWS values.
T = Trace of Precipitation, MM = Missing Value Source: NWS Daily Summary

Daily Weather History Graph

Daily Weather History Graph

Search for Another Location

Airport:

Trip Planner

Search our weather history database for the weather conditions in past years. The results will help you decide how hot, cold, wet, or windy it might be!

Date:

Astronomy

Oct. 19, 2013 Rise Set
Actual Time 7:14 AM MDT 6:12 PM MDT
Civil Twilight 6:46 AM MDT 6:39 PM MDT
Nautical Twilight 6:14 AM MDT 7:11 PM MDT
Astronomical Twilight 5:43 AM MDT 7:42 PM MDT
Moon 6:41 PM MDT (10/19) 7:54 AM MDT (10/19)
Length of Visible Light 11h 53m
Length of Day
10h 58m
Full, 99% of the Moon is Illuminated
Oct 19
Full
Oct 26
Last Quarter
Nov 3
New
Nov 9
First Quarter
Nov 17
Full

Hourly Weather History & Observations

Time (MDT) Temp. Windchill Dew Point Humidity Pressure Visibility Wind Dir Wind Speed Gust Speed Precip Events Conditions
12:15 AM 33.8 °F 28.6 °F 24.8 °F 70% 30.11 in 10.0 mi WSW 5.8 mph - N/A   Clear
12:35 AM 33.8 °F 27.7 °F 24.8 °F 70% 30.10 in 10.0 mi WSW 6.9 mph - N/A   Clear
12:55 AM 33.8 °F 29.6 °F 24.8 °F 70% 30.10 in 10.0 mi WNW 4.6 mph - N/A   Clear
1:35 AM 30.2 °F - 23.0 °F 75% 30.09 in 10.0 mi Calm Calm - N/A   Clear
2:15 AM 30.2 °F 25.4 °F 24.8 °F 80% 30.09 in 10.0 mi West 4.6 mph - N/A   Clear
2:35 AM 30.2 °F 25.4 °F 24.8 °F 80% 30.08 in 10.0 mi SW 4.6 mph - N/A   Mostly Cloudy
2:55 AM 30.2 °F - 24.8 °F 80% 30.08 in 10.0 mi Calm Calm - N/A   Mostly Cloudy
3:15 AM 30.2 °F 25.4 °F 24.8 °F 80% 30.07 in 10.0 mi SSW 4.6 mph - N/A   Partly Cloudy
3:35 AM 30.2 °F 26.7 °F 24.8 °F 80% 30.07 in 10.0 mi SW 3.5 mph - N/A   Clear
3:55 AM 28.4 °F - 23.0 °F 80% 30.06 in 10.0 mi Calm Calm - N/A   Clear
4:15 AM 26.6 °F - 21.2 °F 80% 30.05 in 10.0 mi Calm Calm - N/A   Clear
4:35 AM 26.6 °F - 21.2 °F 80% 30.06 in 10.0 mi Calm Calm - N/A   Clear
4:55 AM 28.4 °F 24.6 °F 24.8 °F 86% 30.05 in 10.0 mi WNW 3.5 mph - N/A   Clear
5:15 AM 26.6 °F - 21.2 °F 80% 30.06 in 10.0 mi Calm Calm - N/A   Clear
5:35 AM 26.6 °F - 21.2 °F 80% 30.06 in 10.0 mi Calm Calm - N/A   Clear
5:55 AM 28.4 °F 24.6 °F 23.0 °F 80% 30.05 in 10.0 mi West 3.5 mph - N/A   Clear
6:15 AM - - - N/A% - - North - - N/A   Unknown
6:35 AM 24.8 °F 19.1 °F 19.4 °F 80% 30.05 in 8.0 mi NE 4.6 mph - N/A   Clear
6:55 AM 26.6 °F - 19.4 °F 74% 30.05 in 10.0 mi Calm Calm - N/A   Clear
7:15 AM 26.6 °F 21.2 °F 19.4 °F 74% 30.04 in 9.0 mi SE 4.6 mph - N/A   Clear
8:15 AM 28.4 °F - 23.0 °F 80% 30.05 in 8.0 mi Calm Calm - N/A   Clear
8:35 AM 30.2 °F - 24.8 °F 80% 30.05 in 8.0 mi Calm Calm - N/A   Clear
8:55 AM 32.0 °F - 26.6 °F 80% 30.06 in 9.0 mi Calm Calm - N/A   Clear
9:15 AM 33.8 °F - 28.4 °F 81% 30.06 in 9.0 mi Calm Calm - N/A   Clear
9:35 AM 37.4 °F - 28.4 °F 70% 30.06 in 10.0 mi Calm Calm - N/A   Clear
9:55 AM 39.2 °F - 30.2 °F 70% 30.06 in 10.0 mi Calm Calm - N/A   Clear
10:15 AM 41.0 °F - 26.6 °F 57% 30.06 in 10.0 mi Calm Calm - N/A   Clear
10:35 AM 42.8 °F - 28.4 °F 57% 30.06 in 10.0 mi Calm Calm - N/A   Clear
11:15 AM 48.2 °F - 30.2 °F 50% 30.05 in 10.0 mi Calm Calm - N/A   Clear
11:35 AM 48.2 °F - 32.0 °F 54% 30.05 in 10.0 mi Calm Calm - N/A   Clear
11:55 AM 51.8 °F - 33.8 °F 50% 30.04 in 10.0 mi East 3.5 mph - N/A   Clear
12:15 PM 55.4 °F - 35.6 °F 47% 30.03 in 10.0 mi Calm Calm - N/A   Clear
12:35 PM 55.4 °F - 33.8 °F 44% 30.02 in 10.0 mi ESE 4.6 mph - N/A   Clear
12:55 PM 57.2 °F - 30.2 °F 36% 30.01 in 10.0 mi Calm Calm - N/A   Clear
1:35 PM 57.2 °F - 28.4 °F 33% 29.99 in 10.0 mi Calm Calm - N/A   Clear
1:55 PM 60.8 °F - 32.0 °F 34% 29.98 in 10.0 mi Calm Calm - N/A   Clear
2:15 PM 60.8 °F - 30.2 °F 31% 29.97 in 10.0 mi SSE 3.5 mph - N/A   Clear
2:35 PM 62.6 °F - 28.4 °F 27% 29.96 in 10.0 mi Calm Calm - N/A   Clear
2:55 PM 62.6 °F - 28.4 °F 27% 29.96 in 10.0 mi South 5.8 mph - N/A   Clear
3:15 PM 62.6 °F - 26.6 °F 26% 29.95 in 10.0 mi SSW 3.5 mph - N/A   Clear
3:35 PM 62.6 °F - 26.6 °F 26% 29.95 in 7.0 mi WSW 3.5 mph - N/A   Clear
3:55 PM 62.6 °F - 26.6 °F 26% 29.94 in 10.0 mi SSW 3.5 mph - N/A   Clear
4:15 PM 64.4 °F - 26.6 °F 24% 29.93 in 10.0 mi South 6.9 mph - N/A   Clear
4:35 PM 64.4 °F - 26.6 °F 24% 29.93 in 10.0 mi South 4.6 mph - N/A   Clear
4:55 PM 62.6 °F - 26.6 °F 26% 29.92 in 10.0 mi SSE 4.6 mph - N/A   Clear
5:15 PM 64.4 °F - 28.4 °F 26% 29.92 in 10.0 mi SSE 3.5 mph - N/A   Clear
5:55 PM 57.2 °F - 30.2 °F 36% 29.93 in 10.0 mi East 4.6 mph - N/A   Clear
6:15 PM 51.8 °F - 33.8 °F 50% 29.92 in 10.0 mi ENE 5.8 mph - N/A   Clear
6:35 PM 50.0 °F - 33.8 °F 54% 29.92 in 10.0 mi ENE 5.8 mph - N/A   Clear
6:55 PM 48.2 °F - 30.2 °F 50% 29.92 in 10.0 mi NNE 5.8 mph - N/A   Clear
7:35 PM 44.6 °F 43.1 °F 32.0 °F 61% 29.92 in 10.0 mi East 3.5 mph - N/A   Clear
8:15 PM 41.0 °F 39.0 °F 30.2 °F 65% 29.92 in 10.0 mi East 3.5 mph - N/A   Clear
8:35 PM 44.6 °F 42.2 °F 32.0 °F 61% 29.92 in 10.0 mi East 4.6 mph - N/A   Clear
8:55 PM 42.8 °F 41.1 °F 30.2 °F 61% 29.92 in 10.0 mi NE 3.5 mph - N/A   Clear
9:15 PM 41.0 °F - 32.0 °F 70% 29.91 in 10.0 mi Calm Calm - N/A   Clear
9:35 PM 41.0 °F 38.0 °F 33.8 °F 76% 29.92 in 10.0 mi NNW 4.6 mph - N/A   Clear
9:55 PM 39.2 °F 32.5 °F 32.0 °F 75% 29.92 in 10.0 mi North 10.4 mph - N/A   Clear
10:15 PM 39.2 °F 33.6 °F 32.0 °F 75% 29.93 in 10.0 mi NE 8.1 mph - N/A   Clear
10:35 PM 41.0 °F 34.7 °F 32.0 °F 70% 29.92 in 10.0 mi NNE 10.4 mph - N/A   Clear
10:55 PM 41.0 °F 35.2 °F 32.0 °F 70% 29.92 in 10.0 mi NNE 9.2 mph - N/A   Clear
11:15 PM 41.0 °F 35.2 °F 32.0 °F 70% 29.91 in 10.0 mi NE 9.2 mph - N/A   Clear
11:35 PM 41.0 °F 38.0 °F 30.2 °F 65% 29.92 in 10.0 mi WNW 4.6 mph - N/A   Clear
11:55 PM 39.2 °F 35.0 °F 30.2 °F 70% 29.91 in 10.0 mi NE 5.8 mph - N/A   Clear